This is the latest recevied weather packets stored in our database for station/object OK1LPD-6. If no packets are shown the sender has not sent any weather packets the latest 10 day(s).
| Time | Temp. | Humidity | Pressure | Rain* | Wind** | Luminosity | Snow |
|---|---|---|---|---|---|---|---|
| 1777517695 | -1.11° C | 71% | 1031.3 hPa | 0 mm | - | - | - |
| 1777517113 | -1.11° C | 69% | 1031.2 hPa | 0 mm | - | - | - |
| 1777516495 | -1.11° C | 68% | 1031.3 hPa | 0 mm | - | - | - |
| 1777515895 | -0.56° C | 69% | 1031.1 hPa | 0 mm | - | - | - |
| 1777515315 | -0.56° C | 67% | 1031.2 hPa | 0 mm | - | - | - |
| 1777514695 | -0.56° C | 68% | 1031.2 hPa | 0 mm | - | - | - |
| 1777514095 | 0° C | 68% | 1031.1 hPa | 0 mm | - | - | - |
| 1777513513 | 0° C | 68% | 1031.2 hPa | 0 mm | - | - | - |
| 1777512895 | 0° C | 67% | 1031 hPa | 0 mm | - | - | - |
| 1777512295 | 0.56° C | 69% | 1031 hPa | 0 mm | - | - | - |
| 1777511716 | 0° C | 66% | 1030.8 hPa | 0 mm | - | - | - |
| 1777511095 | 0.56° C | 65% | 1031 hPa | 0 mm | - | - | - |
| 1777510496 | 0.56° C | 64% | 1030.9 hPa | 0 mm | - | - | - |
| 1777509913 | 0.56° C | 64% | 1031.1 hPa | 0 mm | - | - | - |
| 1777509296 | 1.11° C | 65% | 1031.1 hPa | 0 mm | - | - | - |
| 1777508696 | 1.11° C | 65% | 1031.1 hPa | 0 mm | - | - | - |
| 1777508109 | 1.11° C | 69% | 1031.1 hPa | 0 mm | - | - | - |
| 1777507496 | 1.11° C | 64% | 1030.9 hPa | 0 mm | - | - | - |
| 1777506896 | 1.11° C | 62% | 1030.8 hPa | 0 mm | - | - | - |
| 1777506307 | 1.67° C | 61% | 1030.9 hPa | 0 mm | - | - | - |
| 1777505696 | 1.67° C | 62% | 1030.8 hPa | 0 mm | - | - | - |
| 1777505096 | 1.67° C | 60% | 1031 hPa | 0 mm | - | - | - |
| 1777504508 | 2.22° C | 60% | 1030.8 hPa | 0 mm | - | - | - |
| 1777503896 | 2.22° C | 55% | 1030.9 hPa | 0 mm | - | - | - |
| 1777503297 | 2.78° C | 56% | 1030.7 hPa | 0 mm | - | - | - |
* Rain latest hour (hover to see other rain measurements)
** Current wind speed in m/s (hover to see current wind gust speed)